User: anonymous   Login
Location: Fort Wayne
(41.1310°N, 85.1290°W)
Time: 01:08:11
(UTC-04:00)
Language:

Cosmos 1000 Rocket - Orbit

View from above orbital plane
View from above orbital plane
View from above satellite
View from above satellite

Ground track
Ground track

The orbit data is extracted from the following two-line orbital elements,

1 10777U 78034B   15143.17175391  .00000097  00000-0  81656-4 0  9998
2 10777 082.9440 072.8722 0026660 152.7172 316.9085 13.77348892866312
Epoch (UTC): 23 May 2015 04:07:19
Eccentricity: 0.0026660
inclination: 82.9440°
perigee height: 954 km
apogee height: 993 km
right ascension of ascending node: 72.8722°
argument of perigee: 152.7172°
revolutions per day: 13.77348892
mean anomaly at epoch: 316.9085°
orbit number at epoch: 86631

The dashed part of the orbit path shows where the satellite is in the earth's shadow,  

DLR